Weather History for Sioux Falls, SD

Change the Weather History Date:

Saturday, January 7, 2012

  Actual Average Record
Temperature  
Mean Temperature 28 °F 16 °F  
Max Temperature 39 °F 26 °F 56 °F (2003)
Min Temperature 16 °F 7 °F -30 °F (1912)
Degree Days  
Heating Degree Days 37 49  
Month to date heating degree days 233 343  
Since 1 July heating degree days 2859 3476  
Cooling Degree Days 0 0  
Month to date cooling degree days 0 0  
Year to date cooling degree days 0 0  
Moisture  
Dew Point 18 °F    
Average Humidity 71    
Maximum Humidity 88    
Minimum Humidity 51    
Precipitation  
Precipitation 0.00 in 0.03 in 0.37 in (1992)
Month to date precipitation 0.00 0.14  
Year to date precipitation 0.00 0.14  
Snow  
Snow 0.00 in 0.20 in 2.90 in (1967)
Month to date snowfall 0.0 1.7  
Since 1 July snowfall 0.5 18.6  
Snow Depth 0.00 in    
Sea Level Pressure  
Sea Level Pressure 30.17 in    
Wind  
Wind Speed 2 mph (WSW)    
Max Wind Speed 14 mph    
Max Gust Speed 17 mph    
Visibility 10 miles    
Events      
T = Trace of Precipitation, MM = Missing Value Source: NWS Daily Summary

Daily Weather History Graph

Daily Weather History Graph

Search for Another Location

Airport:

Trip Planner

Search our weather history database for the weather conditions in past years. The results will help you decide how hot, cold, wet, or windy it might be!

Date:

Astronomy

Jan. 07, 2012 Rise Set
Actual Time 8:00 AM CST 5:06 PM CST
Civil Twilight 7:27 AM CST 5:38 PM CST
Nautical Twilight 6:51 AM CST 6:14 PM CST
Astronomical Twilight 6:17 AM CST 6:49 PM CST
Moon 3:51 PM CST (1/7) 6:33 AM CST (1/7)
Length of Visible Light 10h 11m
Length of Day
9h 06m
Waxing Gibbous, 97% of the Moon is Illuminated
Jan 7
Waxing Gibbous
Jan 9
Full
Jan 16
Last Quarter
Jan 23
New
Jan 30
First Quarter

Hourly Weather History & Observations

Time (CST) Temp. Windchill Dew Point Humidity Pressure Visibility Wind Dir Wind Speed Gust Speed Precip Events Conditions
12:56 AM 28.9 °F 19.8 °F 18.0 °F 64% 30.05 in 10.0 mi NW 10.4 mph - N/A   Clear
1:56 AM 27.0 °F 17.3 °F 18.0 °F 69% 30.06 in 10.0 mi WNW 10.4 mph - N/A   Clear
2:56 AM 24.1 °F 19.7 °F 16.0 °F 71% 30.08 in 10.0 mi Variable 3.5 mph - N/A   Clear
3:56 AM 23.0 °F - 15.8 °F 74% 30.04 in 10.0 mi Calm Calm - N/A   Clear
4:56 AM 21.9 °F 17.2 °F 16.0 °F 78% 30.10 in 10.0 mi West 3.5 mph - N/A   Clear
5:56 AM 23.0 °F - 16.0 °F 74% 30.14 in 10.0 mi Calm Calm - N/A   Clear
6:56 AM 19.9 °F - 15.1 °F 81% 30.15 in 10.0 mi Calm Calm - N/A   Clear
7:56 AM 19.0 °F - 15.1 °F 85% 30.15 in 10.0 mi Calm Calm - N/A   Clear
8:56 AM 19.4 °F - 15.8 °F 86% 30.11 in 10.0 mi Calm Calm - N/A   Clear
9:56 AM 24.1 °F - 18.0 °F 77% 30.19 in 10.0 mi Calm Calm - N/A   Clear
10:56 AM 26.6 °F - 19.4 °F 74% 30.16 in 10.0 mi Calm Calm - N/A   Clear
11:56 AM 35.6 °F - 21.2 °F 56% 30.14 in 10.0 mi Calm Calm - N/A   Clear
12:56 PM 36.0 °F 30.3 °F 23.0 °F 59% 30.19 in 10.0 mi SSW 6.9 mph - N/A   Clear
1:56 PM 37.9 °F 33.5 °F 21.9 °F 53% 30.17 in 10.0 mi WSW 5.8 mph - N/A   Clear
2:56 PM 37.9 °F 33.5 °F 21.0 °F 51% 30.18 in 10.0 mi WSW 5.8 mph - N/A   Clear
3:56 PM 37.9 °F 33.5 °F 21.0 °F 51% 30.19 in 10.0 mi SW 5.8 mph - N/A   Scattered Clouds
4:56 PM 35.1 °F 32.2 °F 21.0 °F 57% 30.21 in 10.0 mi WSW 3.5 mph - N/A   Scattered Clouds
5:56 PM 32.0 °F 28.7 °F 21.0 °F 64% 30.23 in 10.0 mi WSW 3.5 mph - N/A   Partly Cloudy
6:56 PM 28.9 °F - 19.9 °F 69% 30.25 in 10.0 mi Calm Calm - N/A   Clear
7:56 PM 25.0 °F - 18.0 °F 75% 30.26 in 10.0 mi Calm Calm - N/A   Clear
8:56 PM 21.0 °F - 17.1 °F 85% 30.27 in 10.0 mi Calm Calm - N/A   Clear
9:56 PM 21.0 °F - 17.1 °F 85% 30.28 in 10.0 mi Calm Calm - N/A   Clear
10:56 PM 18.0 °F - 14.0 °F 84% 30.28 in 10.0 mi Calm Calm - N/A   Clear
11:56 PM 16.0 °F - 12.9 °F 88% 30.28 in 10.0 mi Calm Calm - N/A   Clear